Torna al catalogo

USA 162

AttivoMilitareGEO
NORAD 26948·PAYLOAD·🇺🇸 United States

Lanciato Oct 11, 2001 da Cape Canaveral Space Force Station

Loading…

TLE

AggiornatoSource: Mike McCants

Epoca: Sep 14, 2026, 10:35 UTC

1 26948U 01046A   26257.44158329  .00000000  00000-0  00000-0 0    01
2 26948  14.1350  25.8702 0009798 215.6785 144.2660  1.00270000  8670

Traccia USA 162 in tempo reale con AllMySat

Download on the App Store